Wind_Speed
13 12 13 12 13 14 13 12 11 11 11 11 10 9 9 8 8 7 6 4 4 4 4 3 6 7 10 7 5 5 7 5 4
15 14 13 14 14 14 14 15 14 13 12 13 12 11 11 11 10 9 8 7 6 5 5 5 3 6 8 9 9 10 8 8 9
18 17 17 18 19 17 16 15 15 14 15 14 13 13 13 13 12 11 11 9 9 8 6 8 8 8 7 9 11 12 11 12 15
21 21 21 21 21 20 20 20 19 17 16 15 15 14 15 16 14 13 12 11 11 11 10 8 13 13 11 10 11 13 13 14 18
23 22 22 22 23 23 22 21 21 20 20 18 17 15 16 17 17 16 14 13 13 14 14 13 12 16 18 14 12 12 15 16 19
23 24 25 24 24 24 25 25 24 22 21 21 21 19 19 19 20 19 17 17 16 16 17 17 16 18 19 20 17 14 14 15 16
23 23 25 26 25 24 26 26 27 26 26 25 23 23 22 22 23 24 21 21 21 21 21 21 20 20 22 22 22 20 17 16 17
25 24 22 23 25 25 24 26 26 27 27 27 27 25 24 24 24 25 24 24 24 24 25 24 23 24 24 24 24 24 22 19 17
20 22 23 22 21 21 22 23 24 25 27 27 27 27 27 26 26 26 25 24 24 25 24 24 23 24 23 25 25 23 25 24 22
19 18 19 21 20 21 21 20 20 20 22 24 26 27 28 28 28 28 27 26 25 25 26 26 25 25 23 24 25 25 24 26 25
21 21 18 18 21 21 20 21 20 19 19 19 21 22 24 26 28 29 30 29 28 27 27 27 27 26 25 25 24 25 25 26 27
21 22 22 18 18 19 21 20 21 21 19 18 18 19 20 21 23 24 27 28 28 29 29 28 28 29 28 26 25 25 24 26 28
21 20 21 19 18 18 18 20 19 19 19 18 18 18 19 19 20 21 23 23 25 26 27 28 30 30 30 29 28 25 25 25 26
20 20 21 20 17 18 17 16 19 16 15 16 16 15 16 17 17 19 19 19 20 20 21 23 26 28 29 29 28 28 29 28 27
19 19 19 20 16 17 16 14 14 14 13 12 11 11 12 11 10 10 10 11 12 13 14 15 16 20 24 26 27 29 29 30 29
20 19 17 17 17 15 15 12 9 9 10 9 5 4 3 2 2 3 1 3 5 6 7 8 10 13 15 17 19 22 26 29 31
18 18 17 17 16 14 13 12 9 7 7 6 4 0 1 3 3 4 4 5 5 6 8 9 11 12 14 15 16 17 19 21 23
17 17 17 17 16 14 14 12 9 7 4 5 2 2 2 6 5 4 8 9 8 9 11 12 14 16 18 18 18 19 20 20 19
17 16 15 14 13 13 13 12 8 7 4 2 2 2 3 3 5 6 9 10 12 11 12 12 13 14 15 16 17 19 20 21 22
17 16 15 14 12 12 12 12 9 7 6 5 5 5 5 6 6 11 9 12 13 14 13 13 12 12 12 13 14 16 17 19 20
Wind_Direction
294 294 295 290 283 276 272 270 273 281 276 276 274 271 274 274 272 269 270 265 258 252 234 229 228 241 250 242 210 207 214 213 197
294 290 292 294 290 284 281 278 276 271 273 270 270 271 269 271 270 268 267 268 271 270 268 266 288 254 254 238 230 222 227 234 248
294 295 290 288 289 288 287 286 281 279 279 278 272 263 260 263 266 264 265 265 267 270 270 255 273 283 283 254 242 236 228 235 245
291 290 288 287 284 284 282 282 280 276 278 281 278 271 264 258 261 264 264 264 266 268 268 259 257 259 270 289 269 245 239 229 241
285 283 282 281 281 281 281 279 276 275 274 273 271 272 262 261 258 258 262 262 263 265 266 260 255 256 259 269 277 271 244 239 244
286 283 279 276 275 273 273 273 274 273 273 272 268 266 263 260 260 257 254 257 262 263 264 264 257 257 257 262 265 271 265 250 251
293 288 284 281 276 272 272 271 270 269 269 269 269 267 264 262 259 259 259 256 256 261 265 266 266 261 260 259 261 262 266 261 253
303 299 291 285 281 277 270 270 270 269 268 267 267 266 263 261 260 259 255 255 259 261 264 265 265 264 261 260 260 259 257 259 257
306 303 299 295 289 284 281 274 270 267 267 265 263 262 262 261 261 260 260 257 256 258 261 260 262 265 262 259 259 261 256 254 254
306 305 305 299 296 293 289 285 280 275 270 268 266 263 262 262 261 261 261 261 262 262 263 265 263 260 264 263 259 258 257 254 253
306 302 300 301 299 298 292 289 285 281 277 273 271 270 266 264 263 263 264 263 261 261 261 262 265 267 267 266 266 261 257 255 255
309 306 301 300 299 299 299 294 289 286 283 280 274 272 270 269 268 266 264 262 261 260 259 261 263 264 266 268 268 271 265 258 257
315 312 305 304 305 301 300 298 290 287 285 282 279 276 277 276 271 268 266 265 264 260 258 258 260 264 266 268 268 267 267 264 263
319 318 314 308 310 309 306 302 298 291 284 282 282 283 280 275 275 272 269 267 263 263 262 260 259 261 263 264 265 264 265 267 270
325 322 321 314 315 314 312 311 308 302 290 288 290 284 283 283 277 289 288 265 259 262 267 268 266 266 266 267 266 265 265 265 265
326 327 325 323 320 320 318 319 323 311 304 311 317 303 304 214 306 316 230 205 211 234 253 262 266 270 272 273 271 269 266 266 266
327 327 328 328 324 322 321 323 334 327 324 334 342 318 230 205 285 226 221 222 228 251 263 268 269 269 270 269 269 269 270 269 269
328 329 331 330 327 325 323 321 327 332 335 343 2 2 351 326 223 238 225 236 253 270 270 274 274 276 276 275 273 271 269 267 267
323 324 326 327 328 326 324 316 310 313 319 295 297 315 329 327 315 242 244 257 266 269 279 280 282 280 277 276 274 273 270 266 264
318 320 322 323 324 324 323 324 309 283 281 278 264 261 295 294 279 294 295 297 296 280 284 292 283 281 278 278 276 274 275 272 269
Height
1547 1547 1546 1546 1546 1545 1544 1544 1544 1544 1545 1544 1544 1544 1543 1543 1544 1543 1543 1543 1543 1543 1543 1543 1543 1543 1543 1544 1545 1545 1545 1546 1546
1545 1545 1545 1544 1543 1542 1542 1541 1541 1541 1541 1541 1541 1541 1542 1541 1541 1541 1541 1542 1542 1542 1542 1542 1542 1542 1542 1542 1543 1544 1544 1544 1544
1543 1542 1542 1541 1541 1540 1539 1539 1538 1538 1538 1538 1538 1539 1539 1539 1539 1539 1539 1539 1539 1540 1540 1540 1540 1541 1541 1540 1541 1541 1542 1543 1542
1539 1539 1538 1538 1537 1536 1536 1535 1535 1535 1535 1535 1535 1536 1536 1535 1535 1536 1536 1536 1536 1537 1538 1538 1538 1538 1538 1539 1539 1539 1540 1540 1540
1535 1534 1533 1532 1532 1532 1531 1531 1531 1531 1531 1531 1531 1532 1532 1531 1532 1532 1532 1533 1533 1533 1534 1535 1536 1536 1535 1536 1536 1536 1536 1537 1538
1531 1530 1528 1527 1527 1526 1526 1526 1526 1526 1526 1526 1526 1527 1527 1527 1528 1527 1528 1528 1529 1529 1530 1531 1532 1532 1532 1532 1533 1534 1534 1534 1534
1525 1524 1523 1522 1521 1521 1520 1520 1520 1520 1520 1521 1521 1522 1522 1522 1523 1523 1524 1524 1525 1525 1525 1526 1527 1527 1528 1528 1529 1530 1531 1531 1531
1521 1519 1518 1516 1516 1515 1514 1514 1514 1514 1514 1515 1515 1515 1516 1516 1517 1517 1519 1519 1520 1520 1521 1521 1521 1522 1522 1523 1524 1525 1526 1527 1528
1517 1515 1514 1513 1511 1509 1509 1508 1508 1507 1507 1508 1509 1509 1510 1510 1511 1512 1513 1514 1515 1515 1515 1516 1516 1516 1517 1518 1518 1519 1520 1522 1523
1513 1511 1509 1508 1507 1506 1505 1504 1503 1502 1501 1501 1502 1503 1504 1504 1505 1506 1507 1508 1509 1510 1510 1510 1511 1511 1512 1512 1513 1514 1515 1516 1518
1510 1508 1505 1503 1503 1501 1500 1499 1498 1497 1496 1496 1496 1497 1497 1498 1499 1499 1500 1501 1503 1504 1505 1505 1505 1506 1507 1507 1507 1508 1509 1511 1512
1506 1504 1502 1499 1498 1497 1496 1494 1493 1492 1491 1491 1492 1491 1491 1492 1492 1492 1493 1494 1495 1496 1498 1499 1499 1501 1501 1502 1503 1503 1503 1505 1505
1503 1501 1499 1496 1494 1492 1491 1490 1489 1487 1487 1487 1487 1486 1486 1487 1486 1486 1486 1486 1487 1489 1490 1492 1492 1494 1495 1496 1497 1498 1498 1499 1499
1501 1498 1496 1494 1491 1489 1487 1486 1484 1483 1483 1482 1482 1481 1481 1480 1480 1480 1480 1481 1481 1482 1483 1484 1486 1487 1488 1489 1490 1491 1491 1492 1493
1498 1495 1493 1491 1487 1486 1484 1482 1480 1479 1478 1478 1478 1477 1476 1476 1475 1475 1475 1476 1477 1478 1478 1479 1480 1481 1482 1483 1483 1484 1485 1485 1487
1496 1493 1490 1487 1485 1484 1482 1480 1479 1477 1476 1475 1475 1474 1474 1474 1474 1474 1473 1474 1475 1475 1476 1476 1477 1477 1478 1478 1478 1478 1478 1479 1480
1494 1491 1488 1485 1483 1482 1480 1478 1477 1475 1474 1473 1473 1473 1474 1474 1473 1473 1473 1473 1473 1473 1474 1474 1474 1474 1474 1474 1473 1473 1473 1473 1474
1491 1488 1486 1484 1482 1480 1478 1477 1476 1474 1473 1472 1474 1473 1473 1472 1472 1471 1471 1471 1471 1470 1471 1470 1470 1470 1469 1469 1469 1469 1469 1469 1469
1489 1486 1483 1481 1480 1478 1476 1474 1474 1473 1473 1473 1472 1472 1473 1473 1471 1469 1469 1469 1468 1468 1467 1466 1466 1465 1464 1464 1464 1463 1463 1463 1463
1487 1484 1482 1479 1477 1476 1474 1472 1471 1471 1471 1471 1472 1472 1471 1471 1471 1469 1467 1466 1465 1464 1463 1462 1461 1461 1460 1460 1459 1459 1458 1457 1457